KUIPER-00274

导读

KUIPER-00274是亚马逊“柯伊伯计划”太空互联网星座中的一员,于2026年2月12日由法国阿丽亚娜太空公司的阿丽亚娜6号火箭发射升空。该卫星部署于近地轨道,旨在为全球提供高速宽带互联网接入服务,助力实现泛在网络覆盖,是柯伊伯计划大规模组网进程中的一颗量产卫星。

Basic Information
目录编号:
67792
目录名称:
KUIPER-00274
国际标识:
2026-030AE
轨道中心:
EARTH
卫星名称:
KUIPER-00274
卫星全名:
KUIPER-00274
卫星状态:
在轨 (已飞行205 天)
发射日期:
2026-02-12 UTC
国别 :
美国 (US)
星等 :
--
Orbit Information
数据来源 国际轨道数据 AOE轨道数据
星历时间 2026-09-05T10:08:45+0800
14小时前
查看轨道信息
2026-09-03T23:00:00+0800
2天前
查看轨道信息
半长轴 7007.68km 7007.684km
偏心率 0.0001142 0.0001139
轨道倾角 51.902° 51.900°
近地点辐角 90.433° 83.272°
升交点赤经 129.824° 136.302°
平近点角 269.676° 30.143°
近地点 628.742km 628.748km
远地点 630.344km 630.346km
周期 97.302分钟 97.302分钟
每日圈数 14.799307 14.799296
Detailed Information
使用方式:
暂无
2D Orbit Map
3D Orbit Map
Orbit Altitude Analysis Chart
Orbit Inclination Analysis Chart
Orbit Comprehensive Analysis Chart
View Comprehensive Chart
Conjunction Data List
Event ID Objects TCA Miss Dist (km) Collision Risk Probability Collision Risk Index (CRI) Action
CDM_260902-180702-765306-779223
PSLV DEB (27653)
2026-09-02T
18:07:53+0000
2.209 km
极远距离
2.226459E-6 低风险 0.42